Date String (YYYY-MM-DD hh:mm:ss) UTC,Instrument flags,absolute air pressure of the measurement (hPa),sample flow rate (lpm),inlet stack bypass flow (lpm),air temperature of the measurement (°C),ambient temperature measured by the external sensor (°C),aerosol sample conditioner tube jacket temperature (°C),OPC LED temperature (°C),internal box temperature (°C),relative humidity of the measurement (%),span deviation,mass concentration of particles derived from Lorenz-Mie calculation of OPC scattering (μg/m³),mass concentration of particles derived from Lorenz-Mie calculation of OPC scattering (μg/m³),mass concentration of particles derived from Lorenz-Mie calculation of OPC scattering (μg/m³)
DateTimeUTC,F1_M11,P_M11,Q1_M11,Q2_M11,T1_M11,T2_M11,T3_M11,T4_M11,T5_M11,U1_M11,ZSPAN_M11,X0_M11,X2_M11,X1_M11
2024-02-16 03:00:00,SystemResetWarning,0826.1,5.00,000.00,020.4,019.8,000.0,028.9,022.1,20.1,0000.5,0015.32,0008.32,0007.53
2024-02-16 03:01:00,SystemResetWarning,0826.1,5.00,000.00,020.4,019.8,000.0,028.9,022.1,20.2,0000.4,0014.88,0008.30,0007.50
2024-02-16 03:02:00,SystemResetWarning,0826.2,5.00,000.00,020.4,019.8,000.0,028.9,022.1,20.2,0000.0,0014.36,0008.32,0007.53
2024-02-16 03:03:00,SystemResetWarning,0826.2,5.00,000.00,020.4,019.8,000.0,028.9,022.1,20.2,0000.2,0013.89,0008.35,0007.59
2024-02-16 03:04:00,SystemResetWarning,0826.2,5.00,000.00,020.3,019.8,000.0,028.9,022.1,20.2,0000.4,0013.75,0008.51,0007.75
2024-02-16 03:05:00,SystemResetWarning,0826.2,5.00,000.00,020.3,019.8,000.0,028.9,022.1,20.2,0000.8,0014.39,0008.78,0008.01
2024-02-16 03:06:00,SystemResetWarning,0826.2,5.00,000.00,020.3,019.8,000.0,028.9,022.1,20.2,0000.8,0014.63,0009.13,0008.36
2024-02-16 03:07:00,SystemResetWarning,0826.2,5.00,000.00,020.3,019.8,000.0,028.9,022.1,20.2,0000.8,0015.08,0009.51,0008.68
2024-02-16 03:08:00,SystemResetWarning,0826.2,5.00,000.00,020.3,019.8,000.0,028.9,022.1,20.2,0001.1,0016.39,0009.77,0008.93
2024-02-16 03:09:00,SystemResetWarning,0826.2,5.00,000.00,020.3,019.8,000.0,028.9,022.1,20.3,0001.4,0017.24,0010.14,0009.27
2024-02-16 03:10:00,SystemResetWarning,0826.3,5.00,000.00,020.3,019.8,000.0,028.9,022.1,20.3,0001.5,0017.96,0010.43,0009.56
2024-02-16 03:11:00,SystemResetWarning,0826.4,5.00,000.00,020.3,019.8,000.0,028.9,022.1,20.3,0001.7,0017.56,0010.65,0009.80
2024-02-16 03:12:00,SystemResetWarning,0826.4,5.00,000.00,020.3,019.8,000.0,028.9,022.1,20.3,0001.8,0017.93,0010.83,0010.00
2024-02-16 03:13:00,SystemResetWarning,0826.4,5.00,000.00,020.3,019.8,000.0,028.9,022.1,20.3,0001.9,0018.55,0010.94,0010.14
2024-02-16 03:14:00,SystemResetWarning,0826.4,5.00,000.00,020.3,019.8,000.0,028.9,022.1,20.3,0002.2,0019.13,0011.09,0010.27
2024-02-16 03:15:00,SystemResetWarning,0826.3,5.00,000.00,020.3,019.8,000.0,028.9,022.1,20.2,0002.4,0019.33,0011.24,0010.39
2024-02-16 03:16:00,SystemResetWarning,0826.2,5.00,000.00,020.3,019.8,000.0,028.9,022.1,20.2,0002.4,0019.17,0011.36,0010.50
2024-02-16 03:17:00,SystemResetWarning,0826.2,5.00,000.00,020.3,019.8,000.0,028.9,022.1,20.2,0002.7,0019.68,0011.47,0010.59
2024-02-16 03:18:00,SystemResetWarning,0826.3,5.00,000.00,020.3,019.8,000.0,028.9,022.1,20.2,0002.9,0019.56,0011.50,0010.68
2024-02-16 03:19:00,SystemResetWarning,0826.4,5.01,000.00,020.3,019.8,000.0,028.8,022.1,20.1,0002.8,0018.76,0011.62,0010.76
2024-02-16 03:20:00,SystemResetWarning,0826.4,5.00,000.00,020.3,019.8,000.0,028.8,022.1,20.1,0002.6,0018.73,0011.70,0010.82
2024-02-16 03:21:00,SystemResetWarning,0826.6,5.00,000.00,020.3,019.8,000.0,028.8,022.1,20.1,0002.8,0018.16,0011.88,0010.97
2024-02-16 03:22:00,SystemResetWarning,0826.6,5.00,000.00,020.3,019.8,000.0,028.8,022.1,20.1,0002.7,0018.02,0012.00,0011.12
2024-02-16 03:23:00,SystemResetWarning,0826.6,5.01,000.00,020.3,019.8,000.0,028.8,022.1,20.0,0002.6,0017.83,0012.12,0011.26
2024-02-16 03:24:00,SystemResetWarning,0826.7,5.00,000.00,020.3,019.8,000.0,028.8,022.1,20.0,0002.6,0017.65,0012.30,0011.40
2024-02-16 03:25:00,SystemResetWarning,0826.8,4.99,000.00,020.3,019.8,000.0,028.8,022.2,19.9,0002.6,0017.41,0012.45,0011.55
2024-02-16 03:26:00,SystemResetWarning,0826.8,5.00,000.00,020.3,019.8,000.0,028.8,022.2,19.8,0002.3,0017.49,0012.54,0011.67
2024-02-16 03:27:00,SystemResetWarning,0826.8,5.00,000.00,020.3,019.8,000.0,028.8,022.2,19.8,0002.3,0018.02,0012.66,0011.76
2024-02-16 03:28:00,SystemResetWarning,0826.8,5.00,000.00,020.3,019.8,000.0,028.8,022.2,19.8,0002.1,0018.32,0012.74,0011.83
2024-02-16 03:29:00,SystemResetWarning,0826.8,5.00,000.00,020.3,019.8,000.0,028.8,022.2,19.9,0002.0,0018.33,0012.79,0011.88
2024-02-16 03:30:00,SystemResetWarning,0826.8,5.00,000.00,020.3,019.8,000.0,028.8,022.2,19.9,0002.4,0018.98,0012.81,0011.93
2024-02-16 03:31:00,SystemResetWarning,0826.9,5.00,000.00,020.3,019.8,000.0,028.8,022.2,19.9,0002.6,0019.26,0012.85,0011.99
2024-02-16 03:32:00,SystemResetWarning,0826.9,5.00,000.00,020.3,019.8,000.0,028.8,022.2,20.0,0002.5,0019.53,0012.82,0012.00
2024-02-16 03:33:00,SystemResetWarning,0826.9,5.00,000.00,020.3,019.8,000.0,028.8,022.2,20.0,0002.6,0019.50,0012.81,0012.00
2024-02-16 03:34:00,SystemResetWarning,0826.9,5.00,000.00,020.3,019.8,000.0,028.8,022.2,20.1,0002.7,0019.71,0012.85,0011.99
2024-02-16 03:35:00,SystemResetWarning,0826.9,4.99,000.00,020.3,019.8,000.0,028.8,022.2,20.2,0002.8,0019.58,0012.82,0011.97
2024-02-16 03:36:00,SystemResetWarning,0827.0,5.00,000.00,020.3,019.8,000.0,028.8,022.2,20.2,0002.8,0019.67,0012.78,0011.93
2024-02-16 03:37:00,SystemResetWarning,0827.0,5.00,000.00,020.3,019.8,000.0,028.8,022.2,20.2,0003.0,0019.57,0012.72,0011.89
2024-02-16 03:38:00,SystemResetWarning,0827.0,5.01,000.00,020.3,019.8,000.0,028.8,022.2,20.2,0002.9,0019.24,0012.64,0011.82
2024-02-16 03:39:00,SystemResetWarning,0827.1,5.02,000.00,020.3,019.8,000.0,028.8,022.2,20.2,0002.9,0018.78,0012.58,0011.77
2024-02-16 03:40:00,SystemResetWarning,0827.1,5.00,000.00,020.3,019.8,000.0,028.8,022.2,20.2,0003.0,0019.23,0012.52,0011.72
2024-02-16 03:41:00,SystemResetWarning,0827.1,4.99,000.00,020.3,019.8,000.0,028.8,022.2,20.2,0002.9,0018.61,0012.38,0011.61
2024-02-16 03:42:00,SystemResetWarning,0827.1,4.99,000.00,020.3,019.8,000.0,028.8,022.2,20.2,0002.8,0017.91,0012.24,0011.48
2024-02-16 03:43:00,SystemResetWarning,0827.1,5.01,000.00,020.3,019.8,000.0,028.8,022.2,20.1,0002.7,0017.21,0012.06,0011.34
2024-02-16 03:44:00,SystemResetWarning,0827.1,5.01,000.00,020.3,019.8,000.0,028.8,022.2,20.0,0002.5,0017.16,0011.96,0011.21
2024-02-16 03:45:00,SystemResetWarning,0827.1,5.00,000.00,020.3,019.8,000.0,028.8,022.2,20.0,0002.4,0016.72,0011.76,0011.05
2024-02-16 03:46:00,SystemResetWarning,0827.1,5.00,000.00,020.3,019.8,000.0,028.8,022.2,20.0,0002.6,0016.65,0011.58,0010.93
2024-02-16 03:47:00,SystemResetWarning,0827.0,4.99,000.00,020.3,019.8,000.0,028.8,022.2,20.0,0002.4,0016.51,0011.43,0010.80
2024-02-16 03:48:00,SystemResetWarning,0827.0,5.00,000.00,020.3,019.8,000.0,028.8,022.2,20.0,0002.3,0016.38,0011.32,0010.69
2024-02-16 03:49:00,SystemResetWarning,0827.1,5.00,000.00,020.3,019.8,000.0,028.8,022.2,20.1,0002.4,0016.06,0011.18,0010.59
2024-02-16 03:50:00,SystemResetWarning,0827.0,5.01,000.00,020.3,019.8,000.0,028.8,022.2,20.1,0002.3,0015.78,0011.07,0010.50
2024-02-16 03:51:00,SystemResetWarning,0827.0,5.00,000.00,020.3,019.7,000.0,028.8,022.2,20.1,0002.1,0015.30,0011.03,0010.44
2024-02-16 03:52:00,SystemResetWarning,0827.0,5.01,000.00,020.3,019.7,000.0,028.8,022.1,20.1,0002.1,0015.30,0011.01,0010.39
2024-02-16 03:53:00,SystemResetWarning,0827.0,5.00,000.00,020.3,019.8,000.0,028.8,022.1,20.2,0002.2,0016.47,0011.02,0010.36
2024-02-16 03:54:00,SystemResetWarning,0827.0,5.00,000.00,020.3,019.7,000.0,028.8,022.1,20.2,0002.2,0017.10,0011.00,0010.31
2024-02-16 03:55:00,SystemResetWarning,0826.9,5.00,000.00,020.3,019.7,000.0,028.8,022.1,20.3,0002.2,0017.77,0010.90,0010.21
2024-02-16 03:56:00,SystemResetWarning,0826.9,4.99,000.00,020.3,019.7,000.0,028.8,022.1,20.3,0002.3,0018.04,0010.83,0010.11
2024-02-16 03:57:00,SystemResetWarning,0827.0,5.00,000.00,020.3,019.7,000.0,028.8,022.0,20.4,0002.3,0018.00,0010.73,0009.99
2024-02-16 03:58:00,SystemResetWarning,0827.0,5.00,000.00,020.2,019.7,000.0,028.8,022.0,20.4,0002.4,0018.82,0010.61,0009.87
2024-02-16 03:59:00,SystemResetWarning,0827.1,5.00,000.00,020.2,019.7,000.0,028.8,022.0,20.5,0002.3,0020.04,0010.49,0009.76
